Year,Month,Day,Hour,Minute,Value (Times are PST for barometer in hPa)
2015,07,10,00,00,1005.52
2015,07,10,00,01,1005.55
2015,07,10,00,02,1005.55
2015,07,10,00,03,1005.55
2015,07,10,00,04,1005.55
2015,07,10,00,05,1005.55
2015,07,10,00,06,1005.55
2015,07,10,00,07,1005.56
2015,07,10,00,08,1005.59
2015,07,10,00,09,1005.59
2015,07,10,00,10,1005.59
2015,07,10,00,11,1005.59
2015,07,10,00,12,1005.59
2015,07,10,00,13,1005.59
2015,07,10,00,14,1005.59
2015,07,10,00,15,1005.58
2015,07,10,00,16,1005.55
2015,07,10,00,17,1005.57
2015,07,10,00,18,1005.60
2015,07,10,00,19,1005.56
2015,07,10,00,20,1005.59
2015,07,10,00,21,1005.61
2015,07,10,00,22,1005.65
2015,07,10,00,23,1005.63
2015,07,10,00,24,1005.66
2015,07,10,00,25,1005.66
2015,07,10,00,26,1005.66
2015,07,10,00,27,1005.67
2015,07,10,00,28,1005.68
2015,07,10,00,29,1005.67
2015,07,10,00,30,1005.70
2015,07,10,00,31,1005.73
2015,07,10,00,32,1005.75
2015,07,10,00,33,1005.73
2015,07,10,00,34,1005.76
2015,07,10,00,35,1005.76
2015,07,10,00,36,1005.76
2015,07,10,00,37,1005.77
2015,07,10,00,38,1005.80
2015,07,10,00,39,1005.84
2015,07,10,00,40,1005.86
2015,07,10,00,41,1005.86
2015,07,10,00,42,1005.87
2015,07,10,00,43,1005.90
2015,07,10,00,44,1005.93
2015,07,10,00,45,1005.93
2015,07,10,00,46,1005.93
2015,07,10,00,47,1005.93
2015,07,10,00,48,1005.93
2015,07,10,00,49,1005.94
2015,07,10,00,50,1005.95
2015,07,10,00,51,1005.92
2015,07,10,00,52,1005.88
2015,07,10,00,53,1005.96
2015,07,10,00,54,1005.96
2015,07,10,00,55,1005.97
2015,07,10,00,56,1005.99
2015,07,10,00,57,1005.98
2015,07,10,00,58,1005.95
2015,07,10,00,59,1005.93
2015,07,10,01,00,1005.93
2015,07,10,01,01,1005.92
2015,07,10,01,02,1005.90
2015,07,10,01,03,1005.92
2015,07,10,01,04,1005.90
2015,07,10,01,05,1005.95
2015,07,10,01,06,1005.94
2015,07,10,01,07,1005.95
2015,07,10,01,08,1005.94
2015,07,10,01,09,1005.98
2015,07,10,01,10,1005.94
2015,07,10,01,11,1005.96
2015,07,10,01,12,1005.96
2015,07,10,01,13,1005.96
2015,07,10,01,14,1005.96
2015,07,10,01,15,1005.96
2015,07,10,01,16,1005.96
2015,07,10,01,17,1005.97
2015,07,10,01,18,1006.00
2015,07,10,01,19,1006.02
2015,07,10,01,20,1005.99
2015,07,10,01,21,1006.00
2015,07,10,01,22,1006.04
2015,07,10,01,23,1006.05
2015,07,10,01,24,1005.99
2015,07,10,01,25,1006.00
2015,07,10,01,26,1006.03
2015,07,10,01,27,1006.03
2015,07,10,01,28,1006.02
2015,07,10,01,29,1005.99
2015,07,10,01,30,1006.00
2015,07,10,01,31,1006.04
2015,07,10,01,32,1006.07
2015,07,10,01,33,1006.09
2015,07,10,01,34,1006.07
2015,07,10,01,35,1006.11
2015,07,10,01,36,1006.12
2015,07,10,01,37,1006.11
2015,07,10,01,38,1006.17
2015,07,10,01,39,1006.22
2015,07,10,01,40,1006.21
2015,07,10,01,41,1006.23
2015,07,10,01,42,1006.24
2015,07,10,01,43,1006.27
2015,07,10,01,44,1006.28
2015,07,10,01,45,1006.34
2015,07,10,01,46,1006.40
2015,07,10,01,47,1006.39
2015,07,10,01,48,1006.38
2015,07,10,01,49,1006.40
2015,07,10,01,50,1006.41
2015,07,10,01,51,1006.44
2015,07,10,01,52,1006.45
2015,07,10,01,53,1006.47
2015,07,10,01,54,1006.47
2015,07,10,01,55,1006.47
2015,07,10,01,56,1006.47
2015,07,10,01,57,1006.48
2015,07,10,01,58,1006.51
2015,07,10,01,59,1006.53
2015,07,10,02,00,1006.51
2015,07,10,02,01,1006.56
2015,07,10,02,02,1006.50
2015,07,10,02,03,1006.51
2015,07,10,02,04,1006.57
2015,07,10,02,05,1006.56
2015,07,10,02,06,1006.55
2015,07,10,02,07,1006.57
2015,07,10,02,08,1006.58
2015,07,10,02,09,1006.63
2015,07,10,02,10,1006.61
2015,07,10,02,11,1006.64
2015,07,10,02,12,1006.63
2015,07,10,02,13,1006.60
2015,07,10,02,14,1006.60
2015,07,10,02,15,1006.61
2015,07,10,02,16,1006.63
2015,07,10,02,17,1006.61
2015,07,10,02,18,1006.63
2015,07,10,02,19,1006.61
2015,07,10,02,20,1006.64
2015,07,10,02,21,1006.65
2015,07,10,02,22,1006.70
2015,07,10,02,23,1006.68
2015,07,10,02,24,1006.71
2015,07,10,02,25,1006.71
2015,07,10,02,26,1006.70
2015,07,10,02,27,1006.68
2015,07,10,02,28,1006.73
2015,07,10,02,29,1006.72
2015,07,10,02,30,1006.76
2015,07,10,02,31,1006.74
2015,07,10,02,32,1006.75
2015,07,10,02,33,1006.77
2015,07,10,02,34,1006.77
2015,07,10,02,35,1006.77
2015,07,10,02,36,1006.78
2015,07,10,02,37,1006.83
2015,07,10,02,38,1006.81
2015,07,10,02,39,1006.82
2015,07,10,02,40,1006.85
2015,07,10,02,41,1006.87
2015,07,10,02,42,1006.85
2015,07,10,02,43,1006.88
2015,07,10,02,44,1006.88
2015,07,10,02,45,1006.87
2015,07,10,02,46,1006.84
2015,07,10,02,47,1006.84
2015,07,10,02,48,1006.85
2015,07,10,02,49,1006.87
2015,07,10,02,50,1006.84
2015,07,10,02,51,1006.85
2015,07,10,02,52,1006.87
2015,07,10,02,53,1006.82
2015,07,10,02,54,1006.89
2015,07,10,02,55,1006.90
2015,07,10,02,56,1006.85
2015,07,10,02,57,1006.87
2015,07,10,02,58,1006.85
2015,07,10,02,59,1006.88
2015,07,10,03,00,1006.88
2015,07,10,03,01,1006.87
2015,07,10,03,02,1006.83
2015,07,10,03,03,1006.81
2015,07,10,03,04,1006.81
2015,07,10,03,05,1006.80
2015,07,10,03,06,1006.78
2015,07,10,03,07,1006.84
2015,07,10,03,08,1006.84
2015,07,10,03,09,1006.84
2015,07,10,03,10,1006.82
2015,07,10,03,11,1006.85
2015,07,10,03,12,1006.88
2015,07,10,03,13,1006.88
2015,07,10,03,14,1006.89
2015,07,10,03,15,1006.95
2015,07,10,03,16,1006.98
2015,07,10,03,17,1006.98
2015,07,10,03,18,1006.99
2015,07,10,03,19,1007.01
2015,07,10,03,20,1007.02
2015,07,10,03,21,1007.04
2015,07,10,03,22,1007.04
2015,07,10,03,23,1007.04
2015,07,10,03,24,1007.05
2015,07,10,03,25,1007.09
2015,07,10,03,26,1007.11
2015,07,10,03,27,1007.10
2015,07,10,03,28,1007.08
2015,07,10,03,29,1007.08
2015,07,10,03,30,1007.08
2015,07,10,03,31,1007.09
2015,07,10,03,32,1007.11
2015,07,10,03,33,1007.12
2015,07,10,03,34,1007.16
2015,07,10,03,35,1007.18
2015,07,10,03,36,1007.18
2015,07,10,03,37,1007.18
2015,07,10,03,38,1007.19
2015,07,10,03,39,1007.21
2015,07,10,03,40,1007.21
2015,07,10,03,41,1007.22
2015,07,10,03,42,1007.28
2015,07,10,03,43,1007.28
2015,07,10,03,44,1007.28
2015,07,10,03,45,1007.27
2015,07,10,03,46,1007.22
2015,07,10,03,47,1007.25
2015,07,10,03,48,1007.25
2015,07,10,03,49,1007.26
2015,07,10,03,50,1007.32
2015,07,10,03,51,1007.33
2015,07,10,03,52,1007.34
2015,07,10,03,53,1007.32
2015,07,10,03,54,1007.31
2015,07,10,03,55,1007.29
2015,07,10,03,56,1007.32
2015,07,10,03,57,1007.33
2015,07,10,03,58,1007.36
2015,07,10,03,59,1007.37
2015,07,10,04,00,1007.35
2015,07,10,04,01,1007.36
2015,07,10,04,02,1007.37
2015,07,10,04,03,1007.36
2015,07,10,05,02,1008.00
2015,07,10,05,03,1008.02
2015,07,10,05,04,1008.00
2015,07,10,05,05,1008.04
2015,07,10,05,06,1008.06
2015,07,10,05,07,1008.06
2015,07,10,05,08,1008.07
2015,07,10,05,09,1008.07
2015,07,10,05,10,1008.05
2015,07,10,05,11,1008.09
2015,07,10,05,12,1008.09
2015,07,10,05,13,1008.09
2015,07,10,05,14,1008.09
2015,07,10,05,15,1008.10
2015,07,10,05,16,1008.13
2015,07,10,05,17,1008.11
2015,07,10,05,18,1008.08
2015,07,10,05,19,1008.13
2015,07,10,05,20,1008.13
2015,07,10,05,21,1008.12
2015,07,10,05,22,1008.09
2015,07,10,05,23,1008.11
2015,07,10,05,24,1008.16
2015,07,10,05,25,1008.15
2015,07,10,05,26,1008.14
2015,07,10,05,27,1008.18
2015,07,10,05,28,1008.21
2015,07,10,05,29,1008.18
2015,07,10,05,30,1008.22
2015,07,10,05,31,1008.20
2015,07,10,05,32,1008.21
2015,07,10,05,33,1008.22
2015,07,10,05,34,1008.21
2015,07,10,05,35,1008.23
2015,07,10,05,36,1008.24
2015,07,10,05,37,1008.26
2015,07,10,05,38,1008.27
2015,07,10,05,39,1008.31
2015,07,10,05,40,1008.33
2015,07,10,05,41,1008.33
2015,07,10,05,42,1008.33
2015,07,10,05,43,1008.33
2015,07,10,05,44,1008.34
2015,07,10,05,45,1008.38
2015,07,10,05,46,1008.40
2015,07,10,05,47,1008.43
2015,07,10,05,48,1008.52
2015,07,10,05,49,1008.50
2015,07,10,05,50,1008.51
2015,07,10,05,51,1008.55
2015,07,10,05,52,1008.59
2015,07,10,05,53,1008.58
2015,07,10,05,54,1008.59
2015,07,10,05,55,1008.58
2015,07,10,05,56,1008.60
2015,07,10,05,57,1008.60
2015,07,10,05,58,1008.62
2015,07,10,05,59,1008.67
2015,07,10,06,00,1008.67
2015,07,10,06,01,1008.66
2015,07,10,06,02,1008.65
2015,07,10,06,03,1008.67
2015,07,10,06,04,1008.69
2015,07,10,06,05,1008.73
2015,07,10,06,06,1008.69
2015,07,10,06,07,1008.68
2015,07,10,06,08,1008.71
2015,07,10,06,09,1008.75
2015,07,10,06,10,1008.77
2015,07,10,06,11,1008.78
2015,07,10,06,12,1008.81
2015,07,10,06,13,1008.82
2015,07,10,06,14,1008.84
2015,07,10,06,15,1008.84
2015,07,10,06,16,1008.83
2015,07,10,06,17,1008.83
2015,07,10,06,18,1008.88
2015,07,10,06,19,1008.91
2015,07,10,06,20,1008.92
2015,07,10,06,21,1008.94
2015,07,10,06,22,1008.95
2015,07,10,06,23,1008.97
2015,07,10,06,24,1008.98
2015,07,10,06,25,1009.00
2015,07,10,06,26,1008.98
2015,07,10,06,27,1009.01
2015,07,10,06,28,1009.01
2015,07,10,06,29,1009.02
2015,07,10,06,30,1009.05
2015,07,10,06,31,1009.07
2015,07,10,06,32,1009.05
2015,07,10,06,33,1009.09
2015,07,10,06,34,1009.11
2015,07,10,06,35,1009.13
2015,07,10,06,36,1009.17
2015,07,10,06,37,1009.14
2015,07,10,06,38,1009.13
2015,07,10,06,39,1009.10
2015,07,10,06,40,1009.10
2015,07,10,06,41,1009.13
2015,07,10,06,42,1009.12
2015,07,10,06,43,1009.14
2015,07,10,06,44,1009.14
2015,07,10,06,45,1009.14
2015,07,10,06,46,1009.13
2015,07,10,06,47,1009.12
2015,07,10,06,48,1009.15
2015,07,10,06,49,1009.19
2015,07,10,06,50,1009.21
2015,07,10,06,51,1009.22
2015,07,10,06,52,1009.25
2015,07,10,06,53,1009.26
2015,07,10,06,54,1009.28
2015,07,10,06,55,1009.28
2015,07,10,06,56,1009.28
2015,07,10,06,57,1009.28
2015,07,10,06,58,1009.29
2015,07,10,06,59,1009.32
2015,07,10,07,00,1009.35
2015,07,10,07,01,1009.34
2015,07,10,07,02,1009.32
2015,07,10,07,03,1009.35
2015,07,10,07,04,1009.36
2015,07,10,07,05,1009.38
2015,07,10,07,06,1009.37
2015,07,10,07,07,1009.37
2015,07,10,07,08,1009.42
2015,07,10,07,09,1009.41
2015,07,10,07,10,1009.39
2015,07,10,07,11,1009.41
2015,07,10,07,12,1009.39
2015,07,10,07,13,1009.42
2015,07,10,07,14,1009.42
2015,07,10,07,15,1009.43
2015,07,10,07,16,1009.47
2015,07,10,07,17,1009.46
2015,07,10,07,18,1009.48
2015,07,10,07,19,1009.49
2015,07,10,07,20,1009.52
2015,07,10,07,21,1009.51
2015,07,10,07,22,1009.48
2015,07,10,07,23,1009.48
2015,07,10,07,24,1009.48
2015,07,10,07,25,1009.49
2015,07,10,07,26,1009.52
2015,07,10,07,27,1009.53
2015,07,10,07,28,1009.56
2015,07,10,07,29,1009.59
2015,07,10,07,30,1009.62
2015,07,10,07,31,1009.62
2015,07,10,07,32,1009.62
2015,07,10,07,33,1009.63
2015,07,10,07,34,1009.65
2015,07,10,07,35,1009.65
2015,07,10,07,36,1009.65
2015,07,10,07,37,1009.65
2015,07,10,07,38,1009.66
2015,07,10,07,39,1009.70
2015,07,10,07,40,1009.72
2015,07,10,07,41,1009.71
2015,07,10,07,42,1009.71
2015,07,10,07,43,1009.76
2015,07,10,07,44,1009.78
2015,07,10,07,45,1009.77
2015,07,10,07,46,1009.82
2015,07,10,07,47,1009.81
2015,07,10,07,48,1009.82
2015,07,10,07,49,1009.88
2015,07,10,07,50,1009.87
2015,07,10,07,51,1009.89
2015,07,10,07,52,1009.89
2015,07,10,07,53,1009.88
2015,07,10,07,54,1009.86
2015,07,10,07,55,1009.87
2015,07,10,07,56,1009.89
2015,07,10,07,57,1009.88
2015,07,10,07,58,1009.87
2015,07,10,07,59,1009.88
2015,07,10,08,00,1009.87
2015,07,10,08,01,1009.90
2015,07,10,08,02,1009.93
2015,07,10,08,03,1009.96
2015,07,10,08,04,1009.96
2015,07,10,08,05,1009.97
2015,07,10,08,06,1010.00
2015,07,10,08,07,1010.02
2015,07,10,08,08,1010.03
2015,07,10,08,09,1010.05
2015,07,10,08,10,1010.02
2015,07,10,08,11,1010.04
2015,07,10,08,12,1010.09
2015,07,10,08,13,1010.09
2015,07,10,08,14,1010.10
2015,07,10,08,15,1010.13
2015,07,10,08,16,1010.12
2015,07,10,08,17,1010.10
2015,07,10,08,18,1010.14
2015,07,10,08,19,1010.16
2015,07,10,08,20,1010.18
2015,07,10,08,21,1010.22
2015,07,10,08,22,1010.21
2015,07,10,08,23,1010.25
2015,07,10,08,24,1010.23
2015,07,10,08,25,1010.24
2015,07,10,08,26,1010.26
2015,07,10,08,27,1010.27
2015,07,10,08,28,1010.30
2015,07,10,08,29,1010.31
2015,07,10,08,30,1010.32
2015,07,10,08,31,1010.31
2015,07,10,08,32,1010.35
2015,07,10,08,33,1010.34
2015,07,10,08,34,1010.37
2015,07,10,08,35,1010.40
2015,07,10,08,36,1010.40
2015,07,10,08,37,1010.40
2015,07,10,08,38,1010.40
2015,07,10,08,39,1010.40
2015,07,10,08,40,1010.40
2015,07,10,08,41,1010.40
2015,07,10,08,42,1010.41
2015,07,10,08,43,1010.43
2015,07,10,08,44,1010.43
2015,07,10,08,45,1010.42
2015,07,10,08,46,1010.41
2015,07,10,08,47,1010.43
2015,07,10,08,48,1010.44
2015,07,10,08,49,1010.46
2015,07,10,08,50,1010.46
2015,07,10,08,51,1010.46
2015,07,10,08,52,1010.45
2015,07,10,08,53,1010.44
2015,07,10,08,54,1010.46
2015,07,10,08,55,1010.44
2015,07,10,08,56,1010.42
2015,07,10,08,57,1010.46
2015,07,10,08,58,1010.46
2015,07,10,08,59,1010.45
2015,07,10,09,00,1010.43
2015,07,10,09,01,1010.43
2015,07,10,09,02,1010.43
2015,07,10,09,03,1010.42
2015,07,10,09,04,1010.39
2015,07,10,09,05,1010.38
2015,07,10,09,06,1010.42
2015,07,10,09,07,1010.40
2015,07,10,09,08,1010.41
2015,07,10,09,09,1010.43
2015,07,10,09,10,1010.45
2015,07,10,09,11,1010.49
2015,07,10,09,12,1010.47
2015,07,10,09,13,1010.49
2015,07,10,09,14,1010.46
2015,07,10,09,15,1010.46
2015,07,10,09,16,1010.46
2015,07,10,09,17,1010.47
2015,07,10,09,18,1010.50
2015,07,10,09,19,1010.52
2015,07,10,09,20,1010.57
2015,07,10,09,21,1010.57
2015,07,10,09,22,1010.57
2015,07,10,09,23,1010.58
2015,07,10,09,24,1010.60
2015,07,10,09,25,1010.59
2015,07,10,09,26,1010.58
2015,07,10,09,27,1010.59
2015,07,10,09,28,1010.58
2015,07,10,09,29,1010.59
2015,07,10,09,30,1010.58
2015,07,10,09,31,1010.60
2015,07,10,09,32,1010.60
2015,07,10,09,33,1010.60
2015,07,10,09,34,1010.60
2015,07,10,09,35,1010.60
2015,07,10,09,36,1010.60
2015,07,10,09,37,1010.60
2015,07,10,09,38,1010.61
2015,07,10,09,39,1010.62
2015,07,10,09,40,1010.60
2015,07,10,09,41,1010.59
2015,07,10,09,42,1010.57
2015,07,10,09,43,1010.58
2015,07,10,09,44,1010.60
2015,07,10,09,45,1010.62
2015,07,10,09,46,1010.68
2015,07,10,09,47,1010.71
2015,07,10,09,48,1010.74
2015,07,10,09,49,1010.75
2015,07,10,09,50,1010.76
2015,07,10,09,51,1010.75
2015,07,10,09,52,1010.78
2015,07,10,09,53,1010.79
2015,07,10,09,54,1010.75
2015,07,10,09,55,1010.73
2015,07,10,09,56,1010.80
2015,07,10,09,57,1010.80
2015,07,10,09,58,1010.81
2015,07,10,09,59,1010.85
2015,07,10,10,00,1010.88
2015,07,10,10,01,1010.90
2015,07,10,10,02,1010.88
2015,07,10,10,03,1010.92
2015,07,10,10,04,1010.94
2015,07,10,10,05,1010.93
2015,07,10,10,06,1010.92
2015,07,10,10,07,1010.93
2015,07,10,10,08,1010.91
2015,07,10,10,09,1010.92
2015,07,10,10,10,1010.93
2015,07,10,10,11,1010.92
2015,07,10,10,12,1010.95
2015,07,10,10,13,1010.98
2015,07,10,10,14,1011.01
2015,07,10,10,15,1011.01
2015,07,10,10,16,1011.02
2015,07,10,10,17,1011.06
2015,07,10,10,18,1011.05
2015,07,10,10,19,1011.06
2015,07,10,10,20,1011.05
2015,07,10,10,21,1011.08
2015,07,10,10,22,1011.11
2015,07,10,10,23,1011.12
2015,07,10,10,24,1011.14
2015,07,10,10,25,1011.15
2015,07,10,10,26,1011.18
2015,07,10,10,27,1011.19
2015,07,10,10,28,1011.21
2015,07,10,10,29,1011.21
2015,07,10,10,30,1011.21
2015,07,10,10,31,1011.21
2015,07,10,10,32,1011.22
2015,07,10,10,33,1011.23
2015,07,10,10,34,1011.19
2015,07,10,10,35,1011.20
2015,07,10,10,36,1011.19
2015,07,10,10,37,1011.21
2015,07,10,10,38,1011.21
2015,07,10,10,39,1011.20
2015,07,10,10,40,1011.17
2015,07,10,10,41,1011.14
2015,07,10,10,42,1011.13
2015,07,10,10,43,1011.12
2015,07,10,10,44,1011.13
2015,07,10,10,45,1011.11
2015,07,10,10,46,1011.10
2015,07,10,10,47,1011.08
2015,07,10,10,48,1011.11
2015,07,10,10,49,1011.11
2015,07,10,10,50,1011.12
2015,07,10,10,51,1011.15
2015,07,10,10,52,1011.18
2015,07,10,10,53,1011.17
2015,07,10,10,54,1011.14
2015,07,10,10,55,1011.14
2015,07,10,10,56,1011.15
2015,07,10,10,57,1011.16
2015,07,10,10,58,1011.12
2015,07,10,10,59,1011.14
2015,07,10,11,00,1011.15
2015,07,10,11,01,1011.16
2015,07,10,11,02,1011.12
2015,07,10,11,03,1011.14
2015,07,10,11,04,1011.13
2015,07,10,11,05,1011.11
2015,07,10,11,06,1011.12
2015,07,10,11,07,1011.14
2015,07,10,11,08,1011.14
2015,07,10,11,09,1011.13
2015,07,10,11,10,1011.11
2015,07,10,11,11,1011.13
2015,07,10,11,12,1011.18
2015,07,10,11,13,1011.16
2015,07,10,11,14,1011.12
2015,07,10,11,15,1011.14
2015,07,10,11,16,1011.12
2015,07,10,11,17,1011.09
2015,07,10,11,18,1011.12
2015,07,10,11,19,1011.08
2015,07,10,11,20,1011.10
2015,07,10,11,21,1011.08
2015,07,10,11,22,1011.12
2015,07,10,11,23,1011.13
2015,07,10,11,24,1011.11
2015,07,10,11,25,1011.11
2015,07,10,11,26,1011.12
2015,07,10,11,27,1011.14
2015,07,10,11,28,1011.15
2015,07,10,11,29,1011.18
2015,07,10,11,30,1011.19
2015,07,10,11,31,1011.21
2015,07,10,11,32,1011.22
2015,07,10,11,33,1011.25
2015,07,10,11,34,1011.29
2015,07,10,11,35,1011.30
2015,07,10,11,36,1011.28
2015,07,10,11,37,1011.29
2015,07,10,11,38,1011.31
2015,07,10,11,39,1011.29
2015,07,10,11,40,1011.24
2015,07,10,11,41,1011.23
2015,07,10,11,42,1011.21
2015,07,10,11,43,1011.21
2015,07,10,11,44,1011.21
2015,07,10,11,45,1011.21
2015,07,10,11,46,1011.22
2015,07,10,11,47,1011.25
2015,07,10,11,48,1011.27
2015,07,10,11,49,1011.24
2015,07,10,11,50,1011.25
2015,07,10,11,51,1011.29
2015,07,10,11,52,1011.30
2015,07,10,11,53,1011.28
2015,07,10,11,54,1011.29
2015,07,10,11,55,1011.31
2015,07,10,11,56,1011.30
2015,07,10,11,57,1011.29
2015,07,10,11,58,1011.31
2015,07,10,11,59,1011.31
2015,07,10,12,00,1011.31
2015,07,10,12,01,1011.32
2015,07,10,12,02,1011.33
2015,07,10,12,03,1011.29
2015,07,10,12,04,1011.32
2015,07,10,12,05,1011.36
2015,07,10,12,06,1011.38
2015,07,10,12,07,1011.36
2015,07,10,12,08,1011.32
2015,07,10,12,09,1011.36
2015,07,10,12,10,1011.36
2015,07,10,12,11,1011.32
2015,07,10,12,12,1011.34
2015,07,10,12,13,1011.31
2015,07,10,12,14,1011.30
2015,07,10,12,15,1011.29
2015,07,10,12,16,1011.32
2015,07,10,12,17,1011.33
2015,07,10,12,18,1011.28
2015,07,10,12,19,1011.28
2015,07,10,12,20,1011.29
2015,07,10,12,21,1011.31
2015,07,10,12,22,1011.31
2015,07,10,12,23,1011.31
2015,07,10,12,24,1011.30
2015,07,10,12,25,1011.28
2015,07,10,12,26,1011.27
2015,07,10,12,27,1011.24
2015,07,10,12,28,1011.25
2015,07,10,12,29,1011.27
2015,07,10,12,30,1011.24
2015,07,10,12,31,1011.24
2015,07,10,12,32,1011.26
2015,07,10,12,33,1011.31
2015,07,10,12,34,1011.32
2015,07,10,12,35,1011.35
2015,07,10,12,36,1011.35
2015,07,10,12,37,1011.35
2015,07,10,12,38,1011.35
2015,07,10,12,39,1011.36
2015,07,10,12,40,1011.40
2015,07,10,12,41,1011.42
2015,07,10,12,42,1011.31
2015,07,10,12,43,1011.31
2015,07,10,12,44,1011.34
2015,07,10,12,45,1011.44
2015,07,10,12,46,1011.39
2015,07,10,12,47,1011.44
2015,07,10,12,48,1011.38
2015,07,10,12,49,1011.39
2015,07,10,12,50,1011.45
2015,07,10,12,51,1011.43
2015,07,10,12,52,1011.35
2015,07,10,12,53,1011.36
2015,07,10,12,54,1011.37
2015,07,10,12,55,1011.34
2015,07,10,12,56,1011.30
2015,07,10,12,57,1011.28
2015,07,10,12,58,1011.28
2015,07,10,12,59,1011.27
2015,07,10,13,00,1011.25
2015,07,10,13,01,1011.29
2015,07,10,13,02,1011.31
2015,07,10,13,03,1011.32
2015,07,10,13,04,1011.35
2015,07,10,13,05,1011.35
2015,07,10,13,06,1011.35
2015,07,10,13,07,1011.35
2015,07,10,13,08,1011.35
2015,07,10,13,09,1011.36
2015,07,10,13,10,1011.36
2015,07,10,13,11,1011.31
2015,07,10,13,12,1011.30
2015,07,10,13,13,1011.28
2015,07,10,13,14,1011.27
2015,07,10,13,15,1011.25
2015,07,10,13,16,1011.28
2015,07,10,13,17,1011.29
2015,07,10,13,18,1011.30
2015,07,10,13,19,1011.29
2015,07,10,13,20,1011.30
2015,07,10,13,21,1011.28
2015,07,10,13,22,1011.28
2015,07,10,13,23,1011.28
2015,07,10,13,24,1011.28
2015,07,10,13,25,1011.29
2015,07,10,13,26,1011.30
2015,07,10,13,27,1011.28
2015,07,10,13,28,1011.28
2015,07,10,13,29,1011.27
2015,07,10,13,30,1011.24
2015,07,10,13,31,1011.24
2015,07,10,13,32,1011.24
2015,07,10,13,33,1011.24
2015,07,10,13,34,1011.24
2015,07,10,13,35,1011.25
2015,07,10,13,36,1011.28
2015,07,10,13,37,1011.28
2015,07,10,13,38,1011.28
2015,07,10,13,39,1011.28
2015,07,10,13,40,1011.28
2015,07,10,13,41,1011.29
2015,07,10,13,42,1011.29
2015,07,10,13,43,1011.24
2015,07,10,13,44,1011.24
2015,07,10,13,45,1011.23
2015,07,10,13,46,1011.20
2015,07,10,13,47,1011.14
2015,07,10,13,48,1011.16
2015,07,10,13,49,1011.19
2015,07,10,13,50,1011.15
2015,07,10,13,51,1011.17
2015,07,10,13,52,1011.16
2015,07,10,13,53,1011.20
2015,07,10,13,54,1011.19
2015,07,10,13,55,1011.20
2015,07,10,13,56,1011.17
2015,07,10,13,57,1011.15
2015,07,10,13,58,1011.17
2015,07,10,13,59,1011.13
2015,07,10,14,00,1011.11
2015,07,10,14,01,1011.10
2015,07,10,14,02,1011.06
2015,07,10,14,03,1011.05
2015,07,10,14,04,1011.06
2015,07,10,14,05,1011.04
2015,07,10,14,06,1011.05
2015,07,10,14,07,1011.06
2015,07,10,14,08,1011.05
2015,07,10,14,09,1011.11
2015,07,10,14,10,1011.10
2015,07,10,14,11,1011.06
2015,07,10,14,12,1011.05
2015,07,10,14,13,1011.08
2015,07,10,14,14,1011.11
2015,07,10,14,15,1011.10
2015,07,10,14,16,1011.08
2015,07,10,14,17,1011.13
2015,07,10,14,18,1011.10
2015,07,10,14,19,1011.06
2015,07,10,14,20,1011.04
2015,07,10,14,21,1011.04
2015,07,10,14,22,1011.04
2015,07,10,14,23,1011.05
2015,07,10,14,24,1011.08
2015,07,10,14,25,1011.11
2015,07,10,14,26,1011.10
2015,07,10,14,27,1011.07
2015,07,10,14,28,1011.06
2015,07,10,14,29,1011.03
2015,07,10,14,30,1011.01
2015,07,10,14,31,1011.01
2015,07,10,14,32,1011.01
2015,07,10,14,33,1011.02
2015,07,10,14,34,1011.04
2015,07,10,14,35,1011.03
2015,07,10,14,36,1010.98
2015,07,10,14,37,1011.02
2015,07,10,14,38,1011.03
2015,07,10,14,39,1010.96
2015,07,10,14,40,1010.94
2015,07,10,14,41,1010.93
2015,07,10,14,42,1010.90
2015,07,10,14,43,1010.88
2015,07,10,14,44,1010.90
2015,07,10,14,45,1010.87
2015,07,10,14,46,1010.87
2015,07,10,14,47,1010.87
2015,07,10,14,48,1010.86
2015,07,10,14,49,1010.84
2015,07,10,14,50,1010.84
2015,07,10,14,51,1010.85
2015,07,10,14,52,1010.87
2015,07,10,14,53,1010.88
2015,07,10,14,54,1010.90
2015,07,10,14,55,1010.84
2015,07,10,14,56,1010.83
2015,07,10,14,57,1010.78
2015,07,10,14,58,1010.84
2015,07,10,14,59,1010.83
2015,07,10,15,00,1010.77
2015,07,10,15,01,1010.77
2015,07,10,15,02,1010.78
2015,07,10,15,03,1010.80
2015,07,10,15,04,1010.80
2015,07,10,15,05,1010.81
2015,07,10,15,06,1010.83
2015,07,10,15,07,1010.80
2015,07,10,15,08,1010.79
2015,07,10,15,09,1010.75
2015,07,10,15,10,1010.77
2015,07,10,15,11,1010.77
2015,07,10,15,12,1010.76
2015,07,10,15,13,1010.74
2015,07,10,15,14,1010.74
2015,07,10,15,15,1010.74
2015,07,10,15,16,1010.73
2015,07,10,15,17,1010.66
2015,07,10,15,18,1010.64
2015,07,10,15,19,1010.66
2015,07,10,15,20,1010.62
2015,07,10,15,21,1010.60
2015,07,10,15,22,1010.61
2015,07,10,15,23,1010.63
2015,07,10,15,24,1010.63
2015,07,10,15,25,1010.62
2015,07,10,15,26,1010.58
2015,07,10,15,27,1010.62
2015,07,10,15,28,1010.60
2015,07,10,15,29,1010.61
2015,07,10,15,30,1010.62
2015,07,10,15,31,1010.59
2015,07,10,15,32,1010.57
2015,07,10,15,33,1010.57
2015,07,10,15,34,1010.56
2015,07,10,15,35,1010.53
2015,07,10,15,36,1010.52
2015,07,10,15,37,1010.50
2015,07,10,15,38,1010.50
2015,07,10,15,39,1010.50
2015,07,10,15,40,1010.51
2015,07,10,15,41,1010.53
2015,07,10,15,42,1010.53
2015,07,10,15,43,1010.53
2015,07,10,15,44,1010.53
2015,07,10,15,45,1010.54
2015,07,10,15,46,1010.57
2015,07,10,15,47,1010.56
2015,07,10,15,48,1010.51
2015,07,10,15,49,1010.52
2015,07,10,15,50,1010.51
2015,07,10,15,51,1010.53
2015,07,10,15,52,1010.54
2015,07,10,15,53,1010.56
2015,07,10,15,54,1010.50
2015,07,10,15,55,1010.50
2015,07,10,15,56,1010.50
2015,07,10,15,57,1010.50
2015,07,10,15,58,1010.49
2015,07,10,15,59,1010.46
2015,07,10,16,00,1010.46
2015,07,10,16,01,1010.46
2015,07,10,16,02,1010.46
2015,07,10,16,03,1010.45
2015,07,10,16,04,1010.43
2015,07,10,16,05,1010.43
2015,07,10,16,06,1010.42
2015,07,10,16,07,1010.41
2015,07,10,16,08,1010.45
2015,07,10,16,09,1010.40
2015,07,10,16,10,1010.41
2015,07,10,16,11,1010.42
2015,07,10,16,12,1010.40
2015,07,10,16,13,1010.40
2015,07,10,16,14,1010.38
2015,07,10,16,15,1010.34
2015,07,10,16,16,1010.35
2015,07,10,16,17,1010.32
2015,07,10,16,18,1010.30
2015,07,10,16,19,1010.29
2015,07,10,16,20,1010.27
2015,07,10,16,21,1010.30
2015,07,10,16,22,1010.29
2015,07,10,16,23,1010.24
2015,07,10,16,24,1010.26
2015,07,10,16,25,1010.26
2015,07,10,16,26,1010.26
2015,07,10,16,27,1010.25
2015,07,10,16,28,1010.23
2015,07,10,16,29,1010.22
2015,07,10,16,30,1010.19
2015,07,10,16,31,1010.19
2015,07,10,16,32,1010.18
2015,07,10,16,33,1010.15
2015,07,10,16,34,1010.12
2015,07,10,16,35,1010.09
2015,07,10,16,36,1010.09
2015,07,10,16,37,1010.08
2015,07,10,16,38,1010.07
2015,07,10,16,39,1010.10
2015,07,10,16,40,1010.12
2015,07,10,16,41,1010.07
2015,07,10,16,42,1010.08
2015,07,10,16,43,1010.06
2015,07,10,16,44,1010.05
2015,07,10,16,45,1010.02
2015,07,10,16,46,1010.01
2015,07,10,16,47,1009.98
2015,07,10,16,48,1009.90
2015,07,10,16,49,1009.83
2015,07,10,16,50,1009.86
2015,07,10,16,51,1009.85
2015,07,10,16,52,1009.82
2015,07,10,16,53,1009.82
2015,07,10,16,54,1009.82